Location: Township of South Roscoe
(37.9570°N, 100.1180°W)
Time: 14:06:01
(UTC+00:00)

Cosmos 1758 - Pass Details

Date: 17 October 2021
Orbit: 540 x 560 km, 82.5° (Epoch: 03 December)

Event Time Altitude Azimuth Distance (km) Brightness Sun altitude
Rises 11:59:19 0° 346° (NNW) 2,705 6.7 -11.0°
Reaches altitude 10° 12:01:31 10° 341° (NNW) 1,809 5.7 -10.5°
Maximum altitude 12:05:21 48° 267° (W) 718 3.5 -9.8°
Drops below altitude 10° 12:09:10 10° 192° (SSW) 1,803 5.9 -9.0°
Sets 12:11:22 0° 187° (S) 2,694 6.8 -8.6°
